Hundvaag 1 weather for Oct 1997
Month no. 124
Obs.
Da.
Temp. Dew Point Precip. Wind
Speed
Wind gusts Cloud cover Press. Humidity Wind dir. Sunny OPT
01.10.1997 10,5   0,0     0          
02.10.1997 9,0   20,0     0          
03.10.1997 8,4   0,0     2          
04.10.1997 8,9   19,0     0          
05.10.1997 9,0   25,0     0          
06.10.1997 11,5   4,0     0          
07.10.1997 12,1   2,0     0          
08.10.1997 11,0   66,0     2          
09.10.1997 7,9   1,0     2          
10.10.1997 8,8   2,0     2          
11.10.1997 7,3   7,0     4          
12.10.1997 7,3   0,0     9       1  
13.10.1997 7,8   1,0     9       1  
14.10.1997 5,7   1,0     10       1  
15.10.1997 2,7   0,0     10       1  
16.10.1997 5,9   0,0     1          
17.10.1997 8,4   3,0     0          
18.10.1997 12,0   33,0     9       1  
19.10.1997 10,6   6,0     0          
20.10.1997 3,7   2,0     10       1  
21.10.1997 4,4   6,0     10       1  
22.10.1997 7,4   10,0     0          
23.10.1997 3,6   3,0     0          
24.10.1997 2,8   1,0     10       1  
25.10.1997 1,5   5,0     10       1  
26.10.1997 0,3   0,0     10       1  
27.10.1997 -2,8   0,0     8       1  
28.10.1997 4,3   0,0     0          
29.10.1997 8,9   10,0     0          
30.10.1997 7,0   3,0     2          
31.10.1997 8,7   0,0     0          
Avrg/Sum 6,9   230,0     3,9       11